Miscellaneous Local Product
Issued by NWS North Platte, NE

Home | Current Version | Previous Version | Graphics & Text | Print | Product List | Glossary On
Versions: 1 2 3 4 5 6 7 8 9 10 11 12 13 14 15 16 17 18 19 20 21 22 23 24 25 26 27 28 29 30 31 32 33 34 35 36 37 38 39 40 41 42 43 44 45 46 47 48 49 50
274
AXUS43 KLBF 170210
MISLBF


WESTERN AND NORTH CENTRAL NEBRASKA HOURLY WEATHER ROUNDUP
NATIONAL WEATHER SERVICE NORTH PLATTE NE
800 PM CST TUE JAN 16 2018

NOTE: "FAIR" INDICATES FEW OR NO CLOUDS BELOW 12,000 FEET WITH NO
SIGNIFICANT WEATHER AND/OR OBSTRUCTIONS TO VISIBILITY.

NOTE: STATIONS NOT REPORTING VARIABLES SUCH AS SKY/WEATHER OR
PRESSURE ARE PROVIDED BY RAWS AND APRS NETWORKS AND ARE NOT UNDER
NATIONAL WEATHER SERVICE QUALITY CONTROL.

...OBSERVATIONS IN AND NEAR THE EASTERN PANHANDLE OF NEBRASKA...

CITY           SKY/WX    TMP DP  RH WIND       PRES   REMARKS
PINE RIDGE     CLEAR     19   5  54 SW7       30.30F WCI  10
GORDON         FAIR      17   5  58 SW12G21   30.30F WCI   4
CHADRON        CLEAR     19   6  57 S7        30.29F WCI  10
ALLIANCE       CLEAR      9   4  80 S13       30.30F WCI  -7
SIDNEY         CLEAR     14   3  61 S10       30.33F WCI   1
CRESCENT LAKE    N/A     12   5  73 S6          N/A  WCI   3
$$

...OBSERVATIONS IN NORTHERN NEBRASKA AND FAR SOUTHERN SOUTH DAKOTA...

CITY           SKY/WX    TMP DP  RH WIND       PRES   REMARKS
WINNER         FAIR      12   1  61 S6        30.43F WCI   3
VALENTINE      CLEAR     13   1  59 SW6       30.39F WCI   4
AINSWORTH      CLEAR     10   1  68 S10       30.42F WCI  -4
O`NEILL        CLEAR      4  -1  80 S8        30.51F WCI -10
THEDFORD       CLEAR     11   1  64 SW8       30.42F WCI  -1
BROKEN BOW     CLEAR      4  -3  73 S6        30.49F WCI  -7
ORD            CLEAR      2  -4  76 S5        30.53F WCI  -8
ALBION         CLOUDY     6   0  77 CALM      30.58F
VALENTINE NWR    N/A      9  -3  57 S7          N/A  WCI  -2
HALSEY           N/A     10  -2  58 S5          N/A  WCI   2
BUTTE            N/A      6   0  74 S12         N/A  WCI  -9
CHAMBERS         N/A      5  -6  60 CALM        N/A
EWING            N/A      7   0  73 S3          N/A
$$

...OBSERVATIONS IN SOUTHWEST NEBRASKA AND FAR NORTHEAST COLORADO...

CITY           SKY/WX    TMP DP  RH WIND       PRES   REMARKS
WRAY           FAIR      18   0  45 SE6       30.41S WCI   9
HOLYOKE        FAIR      14   5  67 S9        30.39S WCI   2
IMPERIAL       CLEAR      8  -1  66 SE9       30.42F WCI  -5
OGALLALA       CLEAR     16   4  58 CALM      30.40F
NORTH PLATTE   CLEAR     10   0  63 S7        30.46F WCI  -1
MCCOOK         CLEAR      7  -1  70 S7        30.51F WCI  -5
LEXINGTON      CLEAR      9   1  70 S6        30.52F WCI   0
STAPLETON        N/A      7   0  72 CALM        N/A
GOTHENBURG       N/A     11   0  60 S3          N/A
CALLAWAY         N/A      2  -3  79 S6          N/A  WCI  -9
$$

...OBSERVATIONS IN CENTRAL LINCOLN COUNTY AREA...

CITY           SKY/WX    TMP DP  RH WIND       PRES   REMARKS
N.P. AIRPORT   CLEAR     10   0  63 S7        30.46F WCI  -1
N.P. DOWNTOWN    N/A     12   2  64 CALM        N/A
N.P. SOUTHEAST   N/A     10   0  63 CALM        N/A
N.P. HILLCREST   N/A     10   2  69 SE3         N/A
$$

...SOME OBSERVATIONS FROM AROUND THE REGION...

CITY           SKY/WX    TMP DP  RH WIND       PRES   REMARKS
DENVER         CLEAR     21   8  57 S10       30.27F WCI  10
BERTHOUD PASS  FAIR      12   1  62 NW16G28   30.29S WCI  -4
GRAND JUNCTION CLEAR     32  17  54 VRB5      30.33R WCI  27
LARAMIE        CLEAR     21  -3  35 SE7       30.21F WCI  12
CHEYENNE       CLEAR     17   8  67 SW8       30.23F WCI   7
CASPER         CLEAR     30   4  33 SW13      30.20R WCI  20
BISMARCK       CLEAR      4  -6  63 SE6       30.34F WCI  -7
RAPID CITY     PTCLDY    18   6  59 SE8       30.22F WCI   8
PIERRE         CLEAR      7   2  80 SE9       30.40F WCI  -7
SIOUX FALLS    CLOUDY     1  -3  83 CALM      30.57F
OMAHA          CLOUDY     7   2  80 CALM      30.69S
GRAND ISLAND   CLOUDY     4   0  83 S6        30.59F WCI  -7
SCOTTSBLUFF    CLEAR      7   2  80 E5        30.31F WCI  -2
KANSAS CITY    CLOUDY     3  -2  79 NW3       30.71S
HILL CITY      CLOUDY     7  -1  70 SW5       30.58F WCI  -2
WICHITA        CLEAR     12   5  73 N3        30.70F
DODGE CITY     CLOUDY     8  -5  55 SE7       30.58F WCI  -3
OKLAHOMA CITY  CLEAR     14  -2  49 N7        30.71R WCI   4
DALLAS         CLEAR     24   2  38 N14       30.72R WCI  12
AMARILLO       CLOUDY    14  -2  49 SE9       30.52S WCI   2
$$




USA.gov is the U.S. government's official web portal to all federal, state and local government web resources and services.